COSMOS 2251 DEB, 35979

Orbit data source: Space-Track

COSMOS 2251 DEB, 35979 is space debris in LEO originally from a launch on Wed, 16 Jun 1993 UTC launched from the Plesetsk Missile And Space Complex (PKMTR). The debris from Iridium 33, an American commercial communications satellite, has been tracked extensively since its accidental collision with the defunct Russian satellite Cosmos 2251 in 2009. This event, occurring at high speed in low Earth orbit (LEO), generated thousands of pieces of space debris, significantly increasing the risk of further collisions. The Iridium 33 debris cloud has impacted space traffic management and orbital debris mitigation strategies, making it a subject of ongoing study in space situational awareness.

Loading next visibility...
Identifier
35979, 1993-036AVV
Orbit
LEO
Country
Flag of CISCIS
Related business
Manufacturer
Unknown
Mission
Spacecraft
Bus & Motor
Unknown
Mass
Unknown
Launch date (UTC)
1993-06-16 (33 years ago)
Launch vehicle
Unknown
Launch site
Plesetsk Missile And Space Complex (PKMTR)
Object type
Payload
Rocket body
Debris
Shape & HBR
Unknown shape, 0.1 m
Radar Cross Section
Small (<0.1 m²)

Expand to show TLE details & history
Last TLE update: 5 days ago

TLE from 5 days ago
0 COSMOS 2251 DEB
1 35979U 93036AVV 26202.89125110  .00003970  00000-0  55300-3 0  9998
2 35979  74.0088 164.8174 0059890 243.6047 146.5793 14.76890849918964
Epoch: 2026-07-21T21:23Z
TLE epoch observation values (Epoch: 2026-07-21T21:23:24.095Z)
Latitude
29.31487°
Longitude
-86.47752°
Altitude
677.68 km
Speed
7.502 km/s
True Right ascension
11h 36m 06s
True Declination
29° 09' 60"
Sunlit
Object was in daylight at epoch
Visualization orbit readout
Latitude
Unknown
Longitude
Unknown
Altitude
Unknown
Speed
Unknown
Apparent Right ascension
Unknown
Apparent Declination
Unknown
Sunlit
N/A
Visualization observer readout
Local Sidereal Time
16:32:42
Azimuth
Unknown
Elevation
Unknown
Doppler factor
Unknown
Orbital elements
Apogee altitude
678.749 km
Perigee altitude
594.725 km
Semi-major axis
7,014.874 km
Eccentricity
0.00599
Inclination
74.0088°
RAAN
164.8174°
Arg. of periapsis
243.6047°
True anomaly
146.95495°
Mean anomaly
146.5793°
Eccentric anomaly
146.76736°
Mean motion
3.69414 °/min
Orbital period
97.45 mins
BSTAR
0.000553

Documentation

Showing up to 5 results
|